Location: Unspecified
(0.0000°N, 0.0000°E)
Time: 04:23:41
(UTC+00:00)

S-56A Canister/Altair - Pass Details

Date: 06 December 2023
Orbit: 640 x 2488 km, 38.9° (Epoch: 24 February)

Event Time Altitude Azimuth Distance (km) Brightness Sun altitude
Rises 19:13:22 0° 311° (NW) 3,918 11.5 -18.9°
Reaches altitude 10° 19:15:41 10° 311° (NW) 3,158 11.0 -19.5°
Maximum altitude 19:23:49 89° 223° (SW) 1,621 9.0 -21.3°
Drops below altitude 10° 19:36:18 10° 132° (SE) 4,677 11.3 -24.2°
Sets 19:40:30 0° 132° (SE) 5,880 11.8 -25.1°
